CAPE
1583 1792 1629 1903 2087 2166 2137 1987 1888 1888 2098 2151 2269 2339 2391 2321 2204 1988 1901 2069 2000 1883 1557 1608 1606 1384 1260 1187 1162 1066 1040 995 970 1023 1062 1056 850 899 864 854 844 805 719 704 752 886 1093 1129 1050 1195 1301 1263 1020 813 736 726 628 800 814 793 664 561 541 532 537 526 471 515 519 474 471 498 404 349 244 146 183 178 186 266 344 96 195 436 370
1865 1610 1612 1902 1943 1991 1930 1839 1970 2132 2146 2207 2308 2380 2354 2251 2240 2052 1958 2010 1872 1843 1689 1654 1526 1460 1309 1232 1188 1062 1014 1011 1133 1021 980 1026 1017 957 876 863 833 820 834 859 854 954 1070 1037 1199 1248 1165 1052 697 695 715 637 670 730 700 685 642 568 489 497 560 614 640 576 581 557 463 388 319 216 170 124 72 197 284 481 594 130 139 333 245
1747 1548 1650 1820 2013 1911 1805 1914 1951 2092 2116 2296 2366 2407 2367 2247 2146 2033 1917 1974 1908 1877 1756 1668 1545 1452 1307 1267 1216 1079 1007 1018 1020 927 827 782 742 772 775 755 785 801 874 950 994 1010 1104 1188 1190 1107 973 969 886 915 890 792 711 694 674 598 518 543 572 637 658 618 556 442 487 414 337 293 240 212 130 22 78 470 323 287 85 115 161 278 360
1988 1460 1774 2046 1955 1830 1798 1990 2020 2023 2162 2287 2308 2352 2349 2149 2035 2008 1927 1769 1711 1660 1671 1623 1445 1295 1282 1363 1245 1124 1174 1223 957 868 821 778 783 748 786 780 712 747 873 897 1043 1037 1033 1118 1158 1136 986 896 892 890 806 794 857 1133 777 666 550 628 608 542 518 541 583 549 500 528 464 302 167 172 150 118 108 186 208 131 81 72 268 248 218
1692 1492 1574 1575 1760 1925 1843 1932 1979 2055 2015 2148 2271 2217 2355 2203 1824 1855 1755 1650 1631 1588 1537 1497 1429 1355 1402 1416 1326 1256 1246 1120 1004 964 954 876 859 812 747 773 696 736 827 942 964 998 934 984 1062 878 889 918 888 803 767 947 884 810 703 624 760 602 394 386 442 389 525 602 627 1114 861 374 211 108 237 269 247 177 161 138 134 207 336 350 327
2069 1642 1478 1284 1314 1640 1796 1912 2104 2032 2044 2118 2165 2169 2220 2192 1915 1781 1739 1702 1578 1556 1436 1410 1422 1444 1418 1404 1299 1205 968 938 972 1003 1180 1080 1160 855 748 746 750 712 677 588 769 640 721 839 849 719 688 765 894 854 1246 1386 958 784 964 984 732 378 427 701 656 606 661 660 971 1059 962 771 364 485 557 521 350 277 194 214 237 281 436 495 323
1992 1438 1655 1461 1185 1672 1790 2019 2134 2167 2169 2217 2219 2220 2238 2171 2144 1814 1663 1656 1584 1628 1625 1552 1443 1408 1373 1319 1152 1023 992 998 1002 980 1219 1307 1352 1067 752 743 706 661 667 667 618 508 703 802 842 762 732 835 717 1029 976 1102 1436 1234 1105 1051 657 553 660 631 445 580 739 846 1183 1398 906 678 593 441 676 642 603 349 214 184 154 284 338 302 181
2127 2036 1770 1484 1338 1794 1973 2218 2122 2159 2206 2241 2188 2211 2266 2322 2244 2101 1972 1862 1832 1756 1593 1514 1495 1424 1443 1258 1041 996 1071 1082 1022 973 1265 1226 1189 1218 978 759 734 679 620 602 535 476 608 759 721 695 647 567 549 667 571 723 1263 1292 1117 898 941 766 566 354 267 420 551 680 722 1077 1056 928 761 594 462 554 581 516 377 315 219 236 456 337 191
1714 1494 1365 1584 1787 1966 2126 2173 2237 2124 2264 2247 2223 2237 2278 2348 2340 2226 2026 1902 1831 1696 1624 1554 1512 1385 1252 1129 1043 1078 1136 1094 1066 1244 1304 1200 1212 1330 1336 909 896 943 1008 1149 1571 1338 783 729 710 629 658 717 630 619 648 740 851 1140 1085 987 838 727 477 296 282 483 538 1033 687 969 829 577 730 446 750 629 380 286 242 187 168 272 420 304 179
2132 1962 1858 2000 1693 1948 2115 2172 2226 2290 2343 2365 2347 2321 2280 2369 2372 2305 2145 1940 1832 1718 1563 1570 1539 1464 1320 1207 1171 1148 1232 1318 1448 1201 1050 1053 944 1009 1066 852 827 807 964 856 837 1003 848 716 740 823 785 695 668 760 1024 1074 992 1032 941 876 764 665 585 354 324 429 602 632 668 1291 1035 2064 706 537 392 179 235 252 296 391 611 546 266 45 6
1926 2199 1663 1577 1781 1928 2027 2220 2321 2365 2422 2432 2438 2415 2309 2268 2316 2373 2245 2180 1960 1830 1796 1682 1547 1379 1267 1283 1517 1525 1456 1586 1392 1196 1188 1161 1128 1017 838 888 859 781 692 670 725 696 700 736 759 844 813 1082 1082 959 928 939 912 882 845 889 730 566 526 284 632 601 896 706 750 970 695 1072 524 472 298 160 181 117 85 134 374 450 256 88 72
1802 1555 2354 1823 1899 1774 1992 2074 2361 2415 2418 2538 2555 2500 2429 2254 2232 2267 2312 2297 2233 2097 2121 2075 2052 1774 1513 1659 1810 1750 1759 1780 1541 1275 1263 1293 1111 787 807 910 824 717 642 632 648 603 682 696 684 868 1005 1150 1058 844 802 855 921 948 929 819 706 492 423 278 424 480 673 688 726 750 542 514 615 330 296 130 14 24 24 37 17 5 52 40 15
1908 1915 1554 1795 1846 1542 1692 1809 2130 2342 2435 2424 2572 2604 2332 2202 2161 2211 2172 2115 2210 2364 2373 2323 2349 2289 2232 2135 2100 2036 1959 1773 1626 1389 1283 1242 1021 883 879 881 898 773 651 559 554 557 696 951 974 934 1083 1053 878 760 779 893 902 898 870 783 551 579 524 326 294 433 505 639 413 892 990 867 477 401 214 149 39 32 12 3 1 2 2 9 3
1622 2325 1902 1672 1830 1783 1487 1507 1678 1884 2250 2489 2468 2400 2439 2323 2248 2221 2110 1996 2114 2220 2286 2371 2380 2412 2410 2431 2271 2040 1764 1772 1600 1461 1354 1220 940 922 951 917 936 816 680 544 471 538 702 902 947 1008 1012 930 700 705 692 708 732 952 924 770 661 387 462 651 609 506 524 486 582 474 890 794 491 422 422 115 63 76 39 12 4 4 2 2 4
1350 2135 1979 1457 1838 1686 1700 1582 1651 1777 1911 2055 2309 2296 2413 2392 2329 2274 2269 2338 2219 2198 2220 2312 2317 2445 2492 2446 2314 1685 1427 1346 1534 1671 1469 1344 1089 1084 1031 995 921 872 742 585 938 911 781 704 838 1068 990 866 842 941 913 932 1196 1063 1021 880 777 527 687 474 724 576 430 372 432 435 944 541 506 430 244 260 35 8 12 6 6 1 1 1 2
899 1897 2266 1676 1532 1666 1616 1353 1364 1587 1630 1705 2075 2480 2495 2480 2522 2540 2485 2527 2297 2133 2220 2256 2305 2448 2516 2450 2208 1712 1509 1345 1366 1529 1351 1101 1252 1201 1173 1091 996 918 798 1220 1072 912 704 794 745 1036 1081 937 855 768 1097 1214 1267 1259 1161 1016 884 668 792 782 947 424 422 342 351 508 889 593 741 414 454 317 78 46 16 4 7 10 32 4 2
972 1291 1816 1336 1858 1852 1559 1356 1391 1437 1461 1551 1958 2147 2402 2466 2495 2491 2490 2590 2403 2326 2418 2362 2312 2326 2390 2321 2184 1977 1569 1532 1504 1660 1398 1632 1283 1234 1222 1320 1326 1122 1173 1167 1092 846 734 947 725 1006 1256 983 860 952 1144 1350 1280 1249 1186 989 784 859 720 751 771 409 429 337 366 292 540 479 546 578 474 206 46 29 7 14 13 7 12 5 2
1368 1016 1874 1420 1622 1980 1557 1436 1270 1410 1680 1616 1838 1844 2051 2076 2177 2262 2245 2345 2424 2560 2490 2380 2254 2357 2456 2357 2217 2177 2007 1945 1878 2038 2049 1798 1649 1483 1342 1284 1321 1268 1267 1252 1108 882 774 655 708 1022 1394 1030 860 1015 1194 1242 1359 1268 1165 1074 823 747 822 783 998 318 421 99 291 278 754 701 612 511 291 169 112 52 20 14 13 12 8 3 0
1589 1518 1295 1901 1605 1389 1851 1472 1220 1185 1448 1565 1676 2133 1679 1704 1855 2022 1914 1880 1687 1916 2166 2147 2249 2289 2130 2075 2166 2113 2107 2112 2137 2126 2148 2174 2232 1963 1477 1334 1452 1512 1376 1181 995 951 935 912 1058 1058 1270 1033 959 950 949 977 1195 1265 1157 1091 787 818 691 913 839 179 130 417 301 832 675 480 639 334 350 232 217 53 15 11 4 4 2 2 1
1487 1669 1145 1217 1884 1282 1631 1611 1720 1528 1409 1688 1981 2417 1824 1540 1865 1790 1413 1859 1771 1830 1611 1780 1859 1870 1902 1815 1786 1972 1902 2012 1612 1933 1969 2209 2043 710 1966 1716 1564 1514 1363 1181 1262 1254 1161 1177 1263 1392 1200 1109 1052 1010 956 890 802 1088 1119 1096 992 905 1003 1155 281 223 293 366 482 526 839 642 538 384 348 252 204 100 43 6 2 2 3 1 1
1319 1592 1741 1302 1365 1722 1262 1369 1618 1454 1305 1913 1814 1699 1513 1555 1638 1682 1653 1579 1687 1579 1473 1477 1174 1721 1508 1521 1675 2160 1494 1800 1698 1799 1730 2072 2104 1833 1911 1986 1784 1760 1504 1491 1367 1234 1247 1363 1485 1356 1141 1010 1081 976 905 710 689 871 1029 1125 1081 747 707 454 211 230 337 22 266 487 763 681 662 351 291 272 156 109 20 2 2 1 1 2 1
1857 1882 1844 1659 1166 1076 1344 1572 1531 1722 1575 1560 1450 1437 1568 1538 1543 1859 1868 1632 1658 1388 1417 1246 1552 1642 1321 1588 2077 2070 1936 1174 1150 1363 1412 1332 1717 2108 2154 2124 1863 1946 1721 1547 1460 1290 1271 1356 1398 1222 1235 1167 960 382 542 994 835 659 585 1036 885 852 788 681 388 166 171 100 496 593 574 645 353 434 287 314 230 162 43 1 0 1 2 1 1
1612 1919 1786 1500 1708 1379 1231 810 1422 1503 1455 1305 1420 1390 1781 1880 2226 2343 2138 1900 1817 1634 1529 1159 1332 1256 1118 1423 2134 1816 1747 2028 2040 1104 998 1162 941 1686 1923 2259 2200 1972 1863 1142 1640 1282 1404 1391 1238 1156 1071 946 274 22 254 200 284 630 721 1036 821 463 578 679 522 436 184 470 380 726 602 633 418 314 258 202 227 175 111 11 0 0 1 2 0
1675 1542 1490 1624 1760 1605 1416 1448 1105 860 848 1113 1290 1346 1589 1543 2045 1690 1788 1764 1683 1437 1405 1080 937 1236 1834 1862 1916 1594 1063 2050 1494 1371 1343 974 976 1858 1622 1871 2186 1822 2188 1885 1602 1484 1400 1349 1151 1129 1002 77 3 0 6 58 264 71 220 663 292 442 679 819 591 449 288 214 181 726 670 596 619 234 159 215 218 123 133 22 0 0 0 0 0
1441 1544 1610 1680 1888 1767 1653 1725 1872 1733 1398 1684 1680 1124 1520 2322 1995 2209 2256 2028 1769 1767 1681 1908 922 962 842 1235 946 1274 1402 1827 1404 1014 981 823 850 712 1116 1240 1006 816 2155 510 502 1474 1243 789 1020 608 276 123 125 128 31 11 103 110 256 416 422 517 590 606 540 383 426 499 426 533 684 711 727 302 161 128 116 89 113 85 9 0 0 1 0
1620 1679 1800 1530 1952 1688 1709 1626 1846 1811 2023 1621 1301 1498 1782 1531 1757 1541 1546 1489 1370 1405 1434 1838 1115 1162 956 1556 977 1432 1089 1570 1193 1310 1168 1320 1023 1292 1520 1354 1171 617 1010 445 474 751 427 506 586 457 387 402 344 389 137 145 82 138 156 318 506 636 602 661 646 750 603 653 424 710 840 818 829 598 236 247 148 54 73 62 60 0 0 0 1
1447 1738 1629 1315 1480 1657 1552 1399 1294 1997 1954 1557 1556 1389 1594 1273 1080 1213 1140 775 1325 918 1226 1018 1030 1413 1460 1322 1166 1148 1190 946 864 929 1067 1145 1123 1254 1339 1238 1013 1087 909 754 490 413 360 465 701 461 465 545 509 424 371 234 232 87 106 203 375 459 478 519 533 521 616 602 688 784 775 768 932 835 434 336 204 102 124 126 85 27 0 0 1
1301 1421 1233 1100 1461 1262 1395 1325 1435 1668 1574 1287 1432 1366 1424 1648 1584 1616 1900 1486 1537 1052 1065 1172 1236 1969 1351 1106 1653 1362 777 758 827 467 1422 1138 1131 1390 1410 1701 930 918 1234 1336 749 353 321 347 588 501 437 352 452 436 390 287 248 341 153 197 239 283 332 562 626 510 652 524 626 1014 1142 959 1246 1065 1002 415 334 123 178 105 81 56 0 0 1
1100 967 970 682 710 950 963 974 1176 1085 1321 1181 1409 1538 1796 1296 1765 1943 1216 1956 1686 1548 1091 1064 1080 1248 1462 1056 1581 2049 1362 1031 908 792 1284 1178 1365 1131 1236 932 1141 961 1058 1206 846 302 360 304 470 478 571 456 371 376 317 315 335 317 236 161 173 178 328 379 352 353 596 663 702 810 956 920 1076 1254 1099 748 523 417 336 147 158 96 19 0 0
978 932 774 649 634 581 513 699 712 629 742 786 838 1162 1381 1806 1827 1638 1756 1474 1872 1328 1895 1952 1534 1229 1274 1565 1734 1651 1428 1050 1214 1390 1319 1276 1259 1307 1346 1150 1140 1266 1110 1063 894 351 340 370 324 388 458 538 385 333 242 336 254 296 290 246 156 161 385 430 570 417 362 388 458 796 1014 873 991 1099 1272 1284 1120 603 486 288 230 161 56 8 6
880 792 739 730 744 376 490 437 569 646 466 331 560 679 776 788 1109 1944 1608 1515 1520 1687 1905 1678 1422 1037 1385 1750 1435 1410 1748 1864 1767 1620 1611 1692 1571 1784 1940 2040 1850 1457 1311 865 959 802 577 469 242 413 394 496 431 324 269 211 278 284 279 212 104 206 279 326 481 557 532 500 548 1095 1331 1056 1008 1140 1191 1052 1315 909 609 498 344 227 148 38 24
948 833 725 741 624 584 465 580 662 690 737 472 473 431 406 500 595 887 1706 1503 1736 1625 1637 1474 1246 1627 1451 2011 1968 1755 1662 2029 1861 1588 1032 1539 1465 1648 1920 1821 1718 1340 1162 1022 1150 890 751 471 288 324 420 373 278 387 385 409 256 278 285 392 344 320 232 258 280 290 426 527 498 510 1107 1065 1164 1302 1195 1184 1071 1221 1020 670 539 376 278 138 61
797 861 677 689 844 581 386 472 558 781 298 654 403 455 695 491 381 528 1414 1678 1766 1748 1532 1390 1802 1881 1780 1962 1763 1810 1556 1471 1762 1462 1537 989 1560 1763 1637 1597 1502 1090 1048 1256 1219 1232 650 320 197 204 311 365 471 463 460 398 306 235 593 522 292 266 293 207 485 505 469 332 168 358 771 834 945 1224 1081 1212 1065 1110 1430 1072 628 528 396 300 182
550 648 806 789 967 766 469 614 688 412 677 504 604 449 542 674 586 587 1070 2190 1843 1812 1678 1752 1671 1749 1734 1933 1878 1678 1728 1862 1316 1610 1492 1399 1535 1435 1480 1405 1615 1761 1238 1300 1318 1241 1077 709 348 256 312 307 725 541 378 303 193 244 552 597 588 451 231 290 308 398 400 312 225 167 240 380 787 831 875 1432 1307 1054 1060 1262 1033 713 551 428 331
596 720 908 782 1128 1318 1271 1183 920 798 340 656 188 557 606 515 585 628 625 967 1836 1813 1729 1870 1951 1789 1588 1688 1473 1557 1374 1749 1432 1344 1006 1151 1389 1521 1668 1273 1953 1604 1127 1251 1504 1409 923 910 1201 440 442 583 490 748 497 1382 870 628 856 545 217 255 243 224 154 264 388 362 286 316 299 236 373 430 650 780 1264 999 977 1006 1425 1358 862 565 468
712 840 1041 1144 1361 1562 1343 1395 1337 1282 1143 923 1067 992 622 605 632 677 719 782 610 1131 1716 1747 1669 1781 1322 1352 1584 1402 1525 1275 1421 1568 1314 1137 1328 1504 1496 1803 1285 1545 1016 1173 1105 1086 1450 1592 1379 1368 780 582 507 584 738 1080 1019 901 909 798 680 568 388 468 247 234 175 269 318 263 201 178 216 380 369 446 583 925 814 942 1001 1218 1346 1035 644
772 1033 1107 1309 1512 1295 1453 1254 1497 1374 1193 912 919 1115 712 608 604 558 562 472 444 617 680 805 969 1416 1243 1619 1499 1603 1517 1282 1325 1438 1672 1710 1576 1747 1272 1330 1268 1187 1409 1181 1461 1197 1231 1290 1075 984 807 938 667 681 1071 1146 1056 1161 1209 988 708 778 644 506 145 121 196 122 171 141 98 206 238 255 435 449 500 974 1115 729 990 906 956 1164 946
883 1084 1358 1456 1387 1242 1692 1426 1503 1685 994 746 810 443 679 424 145 380 441 344 382 319 356 360 689 1147 1225 1305 1046 1099 1044 1117 1145 1252 1871 1665 1438 1118 1145 1242 1160 1296 1244 1775 1459 1320 1191 980 1091 734 885 841 575 588 795 963 835 971 1311 1340 1228 1111 979 500 363 307 132 133 106 94 96 140 140 198 244 251 239 365 1139 1073 784 908 752 792 948
1230 1345 1406 1413 858 1389 1744 1881 1850 1385 982 780 924 1088 671 626 280 71 57 10 169 387 342 335 429 628 1105 1085 1125 1006 964 1077 1031 1174 1512 1394 1404 1025 1063 1396 1090 1059 1426 1483 1593 1011 708 552 829 1018 1237 747 820 962 882 530 585 671 453 1126 1555 1341 982 828 404 405 142 102 101 89 19 32 99 187 208 224 292 317 845 940 1165 972 1058 605 644
1607 1457 1397 1199 941 1268 1526 1946 1654 1035 961 960 477 528 325 168 210 321 230 293 262 288 300 311 252 224 467 836 744 577 648 737 826 830 1185 1429 1262 978 955 1394 1246 885 954 1046 1342 1593 1052 866 826 553 691 950 803 1004 1018 799 850 618 694 696 852 811 1084 1045 740 530 281 232 153 125 59 81 112 148 147 178 192 214 276 601 925 768 782 816 428
2066 1761 1544 1420 1568 765 1122 1987 1552 856 493 609 252 264 178 163 190 179 222 27 121 136 25 222 159 248 288 107 48 29 208 294 229 233 344 356 470 1177 1083 1216 1170 942 960 792 754 686 696 1061 1054 922 998 799 410 772 1342 1249 1157 972 994 906 863 578 738 607 1034 434 119 272 218 163 378 435 311 238 175 135 121 133 171 192 262 348 489 556 798
1857 1637 1721 1444 1765 1428 1708 1999 1452 619 288 447 260 266 122 95 34 105 87 4 0 39 32 7 78 80 4 0 0 0 20 166 178 157 179 181 209 478 1052 1029 1354 1176 961 885 818 562 558 719 644 603 583 514 499 901 1307 949 578 594 406 574 690 1311 788 172 52 440 373 352 285 177 543 631 443 383 486 215 201 151 99 97 210 172 149 230 705
2394 1950 1525 1863 2039 1815 1620 2009 1259 353 375 492 195 274 339 214 112 6 0 44 98 66 12 0 0 0 5 4 77 114 96 51 0 13 108 41 124 179 394 511 964 1217 1256 1138 850 587 575 759 502 630 421 456 980 1024 1287 724 489 512 340 292 324 452 793 625 340 268 558 637 435 362 169 48 112 148 267 462 222 228 82 46 94 153 187 177 207
2358 2146 2008 2208 2222 1974 1952 1994 1211 350 450 410 130 305 390 219 47 44 0 0 0 0 0 0 0 0 0 9 1 3 11 49 30 10 4 3 30 56 144 151 344 351 418 797 413 389 1158 1014 951 876 953 995 715 741 1181 1177 1193 780 236 387 676 412 232 472 481 828 350 164 27 1 2 8 118 260 219 484 299 256 281 203 112 156 445 505 209
2425 1870 1781 2098 2204 2126 2022 1776 1068 518 405 313 293 366 299 324 46 52 21 0 0 0 0 4 0 0 0 0 0 26 46 1 0 0 0 1 8 32 31 59 61 155 159 114 118 149 253 343 479 613 769 739 628 787 951 1092 754 1444 832 427 262 290 272 620 700 752 840 98 45 29 134 62 90 174 212 178 209 354 541 845 744 448 557 490 481
2397 2090 2196 2092 2218 2113 2056 1620 853 550 465 353 592 354 48 30 0 0 0 0 0 0 1 0 3 0 0 0 0 2 8 4 0 0 0 0 7 7 12 4 44 94 42 29 2 1 0 37 227 711 830 744 770 416 414 1002 1129 1243 859 1335 323 851 720 358 180 153 982 813 312 129 236 157 318 364 151 110 434 530 363 340 650 1169 1223 859 612
2278 2321 2450 2140 2218 1957 2000 1721 816 433 604 277 687 46 20 5 0 0 0 0 0 36 13 4 0 0 2 13 37 28 36 6 0 0 0 0 0 2 12 0 0 0 2 5 5 1 0 2 13 53 118 276 438 614 315 319 803 589 562 699 442 496 440 250 160 140 450 688 898 648 390 148 344 316 232 266 452 340 166 316 427 237 860 991 1062
2131 2358 2674 2326 2044 1827 1993 1555 671 446 584 344 577 38 50 6 0 0 0 0 2 19 3 2 0 0 4 11 18 48 7 16 9 0 1 0 0 0 0 0 0 0 0 0 1 1 8 10 8 13 22 26 68 310 301 485 436 506 379 200 310 271 236 85 71 184 290 276 505 985 964 597 276 227 208 334 742 335 655 891 266 362 347 464 462
2192 2486 2613 2410 2018 1970 1969 1337 755 470 632 415 425 33 99 46 1 0 0 0 1 0 2 0 1 4 5 12 10 2 1 1 3 0 0 0 0 0 0 0 0 0 0 0 0 1 8 11 13 18 30 35 49 54 37 36 26 52 103 206 421 203 204 178 184 246 162 192 250 187 316 844 809 328 130 273 397 368 984 1139 776 406 710 1324 712
2222 2380 2425 2473 1896 2074 1974 1351 763 557 666 497 472 220 180 95 44 0 0 0 1 0 0 3 7 2 6 0 0 0 0 0 0 0 0 0 0 0 0 0 0 0 0 0 0 0 0 0 7 17 17 26 27 37 35 19 10 12 5 5 38 23 204 151 66 21 40 174 32 14 56 74 200 701 384 64 22 2 0 25 170 21 13 66 465
2110 2270 2434 2347 1757 2376 1890 1218 824 594 734 637 558 304 305 115 112 33 0 0 2 0 3 1 3 13 0 0 0 0 0 0 0 0 0 0 0 0 0 0 0 0 0 0 0 0 0 0 0 0 0 0 0 0 0 0 0 0 0 0 0 0 2 2 4 1 0 0 0 0 0 0 0 0 172 328 98 5 1 0 0 0 0 0 6
Wind_Speed
33 38 36 38 37 36 36 36 37 37 36 35 34 33 32 32 33 34 35 35 34 33 33 33 31 29 26 25 24 22 21 20 18 18 18 18 18 18 18 18 17 17 16 14 14 14 13 12 13 13 13 14 15 14 13 11 11 14 18 19 24 25 24 22 20 19 19 18 15 13 12 12 11 11 11 12 12 12 13 9 7 nan 7 6 6
35 38 36 37 37 36 36 37 37 37 36 36 35 34 33 33 33 34 35 35 35 33 33 33 32 28 27 25 24 22 20 19 18 18 18 19 19 18 18 18 18 17 16 15 14 13 12 12 13 13 14 15 15 15 14 13 13 15 20 24 26 25 23 21 19 18 17 16 15 14 14 13 12 10 11 12 nan 15 18 16 14 10 8 7 8
38 39 37 38 37 36 36 37 37 37 38 36 36 34 35 34 34 34 35 34 33 32 32 33 31 29 26 25 24 22 20 19 19 18 18 18 18 18 19 19 18 17 17 16 14 13 13 14 14 14 14 15 14 14 14 13 12 14 16 20 23 23 22 21 18 17 18 17 16 16 16 15 14 13 13 nan nan 20 20 20 nan 10 10 11 10
40 40 38 38 37 36 36 36 37 37 37 37 36 36 36 35 34 34 34 33 33 32 31 31 30 29 27 25 24 22 20 18 19 19 19 18 18 19 20 21 19 18 18 16 15 13 14 14 14 14 14 15 15 15 16 15 14 15 17 19 21 22 22 22 23 21 14 10 10 10 11 11 12 14 14 14 15 17 18 18 nan nan 11 10 11
40 38 37 35 35 36 36 36 36 36 37 38 38 39 38 35 34 33 34 33 32 32 32 32 30 29 27 25 23 21 19 20 20 20 20 19 18 19 20 20 20 19 18 17 16 14 13 14 14 13 14 15 15 16 16 15 15 16 16 18 21 23 25 24 21 15 11 8 4 8 15 14 13 14 14 15 16 16 16 15 16 14 13 14 15
38 35 33 33 33 35 36 36 36 36 37 38 39 39 39 37 35 34 33 32 32 32 33 32 31 29 27 25 23 22 21 21 21 20 21 20 17 19 20 21 21 20 18 18 16 14 15 15 13 13 14 15 15 17 18 17 17 15 18 19 20 23 25 24 18 15 13 9 9 10 13 13 14 13 14 13 14 14 14 15 15 13 11 13 13
37 32 31 31 31 33 35 36 36 35 36 37 38 38 38 39 37 36 35 33 33 33 33 32 30 29 27 25 23 22 21 21 21 21 21 19 17 18 20 21 21 21 20 19 17 17 16 15 16 14 16 15 16 19 19 18 18 18 18 18 21 23 24 20 19 17 14 15 12 10 16 16 14 14 16 16 15 14 14 14 12 10 13 13 13
33 32 31 32 31 34 34 35 35 34 35 37 37 37 38 39 38 37 36 34 33 33 33 32 31 29 27 25 23 22 21 21 21 21 20 20 20 20 20 20 21 21 21 19 18 18 17 15 15 16 15 15 18 19 20 19 19 19 21 21 23 23 22 19 17 17 15 15 13 16 16 16 16 14 14 17 16 15 14 13 13 14 11 9 8
37 36 35 35 36 38 36 35 35 35 35 36 36 37 39 39 38 36 35 33 32 33 33 31 31 29 27 25 23 22 20 20 21 21 23 22 22 21 21 22 21 21 22 22 24 23 19 17 17 17 20 19 18 19 20 20 20 19 20 22 23 23 21 20 19 19 18 14 18 16 18 15 15 15 16 15 16 18 17 11 12 15 18 17 16
38 38 37 35 38 39 37 36 36 35 35 35 36 36 37 37 37 36 35 33 32 32 32 31 30 29 27 25 23 21 20 20 20 22 23 24 24 24 24 23 22 22 22 25 27 27 24 18 20 22 20 20 20 21 23 23 21 20 20 21 22 22 21 18 17 19 19 16 14 25 23 26 19 18 20 20 18 19 19 25 24 21 17 nan nan
39 38 36 37 42 40 39 38 37 36 35 35 35 34 34 34 35 35 34 32 32 32 30 30 30 29 27 25 24 23 21 21 21 21 21 21 22 23 24 24 23 22 24 23 25 26 24 22 22 22 23 24 24 23 23 24 22 19 19 20 20 21 19 17 20 19 17 18 22 15 21 25 21 19 20 20 19 18 nan 22 19 16 15 nan nan
40 37 36 37 44 41 40 38 37 36 35 35 34 33 32 32 33 34 32 31 31 31 31 30 29 28 27 25 24 23 23 23 22 21 20 20 22 23 24 24 24 24 25 24 23 24 25 23 22 24 24 25 25 25 23 24 23 21 19 19 21 21 19 20 21 20 19 19 21 14 17 21 20 20 19 17 nan nan nan nan nan nan nan nan nan
40 41 40 41 41 42 42 38 37 36 36 36 34 33 32 30 31 31 30 29 29 30 31 31 29 27 26 25 24 24 25 25 23 21 20 19 21 23 22 23 24 24 25 26 24 23 25 27 26 24 25 25 25 25 24 23 21 20 18 18 20 20 21 21 21 19 20 19 14 11 22 21 21 20 18 17 nan nan nan nan nan nan nan nan nan
42 40 40 41 39 43 41 39 38 37 36 34 33 32 31 29 29 28 27 27 28 29 30 30 29 27 25 24 25 26 27 26 23 22 20 20 20 22 22 22 23 23 23 24 25 23 24 25 26 26 26 25 25 25 25 24 23 19 18 17 17 18 20 21 17 21 22 22 20 19 22 19 19 21 17 15 nan nan nan nan nan nan nan nan nan
44 41 41 40 40 39 40 37 36 36 34 31 31 31 30 28 28 27 25 26 27 28 28 29 29 27 25 25 26 26 26 26 24 22 21 20 20 21 22 23 23 23 22 22 27 29 24 22 25 28 27 25 25 25 26 27 23 21 18 18 17 19 26 26 26 23 22 23 21 20 22 21 19 18 16 17 nan nan nan nan nan nan nan nan nan
44 43 41 40 37 37 36 37 35 35 34 31 29 29 28 28 28 26 25 27 28 28 28 30 29 27 26 26 26 25 25 24 23 22 21 20 20 21 22 23 24 24 23 26 26 26 22 20 24 28 28 26 24 24 25 25 24 23 21 19 17 21 24 28 26 20 24 22 21 20 23 21 19 19 17 15 nan nan nan nan nan nan nan nan nan
42 44 40 40 38 35 35 35 34 32 32 26 29 28 27 29 29 27 26 27 28 28 28 29 29 28 26 26 26 25 24 24 24 22 21 20 22 22 23 24 25 25 25 24 24 22 21 20 24 28 29 27 24 24 25 25 26 24 23 19 20 20 23 27 27 23 22 24 24 20 19 21 22 20 17 16 nan nan nan nan nan nan nan nan nan
35 42 39 38 37 35 35 35 34 32 31 28 27 28 29 29 28 28 27 27 28 28 28 28 28 28 27 25 25 26 25 24 25 23 23 23 24 24 23 24 26 26 25 24 24 23 21 24 21 27 29 28 23 24 26 26 26 25 23 22 18 23 22 27 26 26 28 nan 22 25 27 25 23 20 18 17 16 nan nan nan nan nan nan nan nan
35 35 40 34 36 36 36 35 33 32 32 29 26 30 33 30 27 27 29 31 27 28 29 28 26 28 29 28 26 26 25 25 24 23 23 24 25 25 26 25 26 26 26 25 24 23 23 22 25 25 29 31 28 28 30 30 29 26 23 21 20 18 22 25 26 28 29 23 25 27 26 28 25 20 17 17 17 nan nan nan nan nan nan nan nan
32 32 37 35 33 36 36 34 34 33 32 28 29 31 30 28 28 30 28 28 29 30 31 29 26 28 30 29 26 25 25 25 23 21 22 23 23 22 27 28 26 25 25 24 23 23 23 23 25 27 30 33 31 29 31 32 30 27 24 20 17 16 20 22 28 28 29 31 27 27 30 27 25 18 19 20 19 nan nan nan nan nan nan nan nan
28 33 33 34 36 32 36 34 34 36 34 31 33 33 31 25 28 29 28 29 25 31 32 30 25 26 27 25 22 22 24 22 19 19 21 20 19 22 24 26 27 24 24 23 21 21 22 25 27 29 30 31 31 29 30 31 31 28 24 19 16 17 19 25 26 28 26 nan 25 28 33 32 22 21 20 20 21 21 nan nan nan nan nan nan nan
29 31 31 32 35 36 34 34 32 33 35 32 31 30 31 27 26 26 27 27 27 30 29 27 23 24 22 20 21 22 21 22 19 18 17 16 15 20 22 23 23 23 23 21 20 20 21 25 27 29 29 26 27 26 28 29 30 28 23 21 18 17 21 21 25 27 30 28 31 30 31 30 23 20 19 21 22 22 nan nan nan nan nan nan nan
29 30 30 31 30 32 35 38 32 33 34 31 29 29 26 26 25 24 22 23 23 23 22 22 20 21 24 20 22 22 21 20 20 14 17 15 15 19 20 19 19 20 19 19 20 21 21 24 25 25 25 22 18 nan 25 26 28 27 25 23 21 21 20 21 22 26 25 32 30 32 31 27 25 21 21 21 22 22 21 nan nan nan nan nan nan
33 31 31 31 30 29 29 30 33 34 30 29 29 30 26 26 25 23 22 21 21 19 19 23 18 20 21 24 19 20 18 19 16 16 19 15 16 16 17 16 17 16 17 17 19 20 22 23 24 22 19 nan nan nan nan nan 27 nan 26 25 24 24 20 19 20 24 25 30 30 32 32 30 26 25 24 23 21 21 20 nan nan nan nan nan nan
34 33 32 31 29 27 27 27 27 30 31 29 29 30 30 30 27 24 25 23 21 18 18 24 24 23 15 17 16 14 14 16 16 15 15 16 14 13 16 14 14 14 17 14 17 18 19 20 23 20 15 14 14 18 nan nan 29 30 29 28 27 24 20 21 22 25 25 31 30 30 32 31 28 26 26 24 23 nan 21 nan nan nan nan nan nan
34 30 29 29 26 26 25 26 26 27 29 27 28 28 28 26 26 25 25 21 19 19 17 24 23 17 14 17 22 16 13 13 13 12 14 16 9 11 12 14 13 17 18 14 17 19 18 20 21 21 19 17 15 18 24 28 nan 33 30 27 25 22 20 21 22 23 25 29 29 32 31 31 28 26 25 25 25 nan nan nan nan nan nan nan nan
28 28 26 27 23 26 25 27 26 27 26 25 28 27 27 24 26 25 25 20 22 19 19 19 20 20 20 19 23 18 15 17 13 9 13 15 11 9 12 18 17 19 14 14 16 17 18 24 21 22 22 19 18 17 19 24 29 nan 30 28 25 23 21 21 23 21 22 27 29 30 30 29 29 28 26 26 26 25 23 22 nan nan nan nan nan
27 28 28 24 24 27 25 24 27 27 24 23 27 25 27 25 24 26 22 24 24 26 22 22 24 27 24 20 16 18 18 14 16 14 17 17 16 14 15 18 18 18 18 15 16 17 19 23 24 22 23 21 18 16 16 20 27 31 30 28 27 26 24 23 22 22 24 23 27 28 29 29 29 29 28 27 27 26 25 24 nan nan nan nan nan
30 27 25 27 26 28 27 25 28 25 27 24 27 26 26 26 26 23 23 27 22 23 27 30 24 22 21 19 18 18 16 19 20 20 19 19 21 23 18 18 16 16 18 17 14 15 19 21 25 23 23 21 19 17 16 16 23 27 29 28 27 25 24 23 22 21 20 23 25 26 27 27 28 29 28 29 27 27 26 25 25 nan nan nan nan
30 29 28 28 29 28 26 28 24 24 28 25 27 26 26 25 24 23 22 25 23 22 28 28 28 24 22 22 22 21 17 20 22 21 20 22 24 23 19 20 19 14 18 16 15 15 18 20 23 25 24 22 21 20 17 15 18 25 28 29 28 27 28 25 23 21 20 22 24 26 25 26 26 27 28 28 28 26 26 26 25 25 nan nan nan
32 32 30 29 30 27 28 28 26 24 25 23 24 25 22 22 22 22 22 23 24 25 26 25 28 26 24 23 20 20 17 21 23 21 19 23 25 22 20 20 20 17 18 16 15 17 18 20 23 24 24 23 22 22 20 17 17 22 27 30 30 29 27 28 25 23 20 23 22 26 25 25 24 24 25 26 28 27 26 26 26 25 23 nan nan
34 33 31 31 29 27 29 27 28 23 21 23 23 21 20 19 22 21 23 24 27 25 25 24 30 25 24 24 23 21 21 23 23 22 20 22 23 21 21 21 21 23 16 13 18 17 17 17 19 24 26 23 24 24 23 21 20 22 27 30 32 31 30 28 26 24 24 23 23 24 26 24 23 22 23 25 25 27 27 26 26 26 25 24 nan
33 33 34 32 29 29 30 26 27 25 23 21 24 22 22 19 20 21 24 24 26 25 24 27 31 27 24 22 23 21 22 23 26 23 21 21 24 23 22 22 23 22 15 13 19 17 14 15 17 21 23 25 26 24 23 23 21 21 24 29 32 32 32 31 29 27 25 24 24 24 24 25 25 21 21 22 24 26 27 27 26 26 26 24 24
34 34 36 34 31 30 28 25 26 25 23 24 24 21 24 22 22 22 26 24 25 26 26 27 27 26 24 25 24 25 25 27 28 29 25 22 21 19 22 20 20 23 20 18 18 15 13 13 16 18 23 25 27 23 23 23 21 21 23 25 30 34 34 33 31 30 28 27 26 24 23 25 25 24 23 20 21 24 26 27 25 26 26 25 25
34 37 37 37 33 32 29 26 23 27 24 25 23 25 24 22 23 24 27 24 26 26 27 27 26 26 23 26 24 27 25 29 30 32 24 19 19 16 23 27 26 26 23 18 17 17 16 17 16 17 23 24 27 26 28 27 28 29 28 27 28 32 34 34 35 33 30 27 27 26 25 25 26 24 23 25 21 21 22 24 25 25 26 24 24
37 38 38 37 36 34 32 30 27 26 25 27 27 27 28 25 27 27 26 26 27 27 28 29 27 25 27 28 27 28 26 25 28 30 24 22 16 21 29 26 27 26 22 18 16 19 20 19 20 22 21 26 27 24 27 25 28 30 29 29 31 35 36 36 35 35 33 31 28 27 25 24 24 24 24 25 24 23 20 21 22 24 24 22 21
38 38 38 37 36 36 33 32 29 27 26 26 27 28 28 29 27 29 26 25 27 28 28 28 29 28 32 29 28 28 22 27 26 28 26 22 23 24 29 28 25 25 21 18 19 20 22 22 23 22 22 23 25 25 26 26 27 30 31 32 34 36 39 41 38 36 35 32 30 27 nan 27 25 24 26 25 25 25 22 18 20 20 22 22 20
36 36 36 35 36 35 33 31 29 27 27 27 27 26 28 29 27 29 29 29 28 28 29 30 32 30 29 29 26 24 25 27 26 26 27 24 25 33 24 26 24 23 21 21 19 22 24 24 22 20 21 20 23 23 26 27 27 30 30 32 34 36 38 41 42 40 37 33 32 nan nan 28 27 26 26 25 23 26 25 21 18 19 19 20 20
33 34 35 33 35 34 32 31 29 28 27 27 28 28 30 27 31 nan nan nan 28 32 30 32 32 31 30 30 29 29 28 26 26 27 24 24 27 33 24 24 25 25 22 21 20 23 25 22 17 22 24 23 23 24 26 26 28 29 30 29 31 32 34 38 39 38 37 36 35 nan nan nan nan 30 28 28 27 25 26 24 22 21 20 18 18
32 32 34 34 34 35 32 30 30 29 28 27 27 28 28 28 30 30 30 30 29 32 31 33 31 33 31 30 29 28 28 27 27 27 26 23 27 32 27 22 23 27 24 22 20 19 21 22 21 24 23 22 21 22 25 27 27 28 30 29 29 29 28 31 36 36 39 40 38 36 nan nan 35 33 30 30 28 25 25 25 23 21 19 20 16
32 32 34 33 35 35 33 32 31 30 29 27 26 26 28 30 30 30 32 nan 31 30 nan 34 36 35 33 32 nan nan 29 28 28 28 27 25 25 32 28 24 25 27 29 25 22 18 21 24 24 21 21 21 22 19 25 28 27 28 29 27 29 29 28 27 31 34 35 42 41 38 38 38 36 34 33 34 30 28 27 26 24 22 21 22 21
32 33 33 32 33 34 34 32 31 31 30 28 28 26 26 nan nan 31 nan nan nan nan nan nan nan nan nan nan nan nan nan 30 30 30 29 28 28 28 28 26 25 26 27 27 28 26 23 23 22 20 17 19 19 24 28 29 27 27 30 31 29 29 28 28 nan 32 37 39 43 41 37 37 37 36 35 34 32 30 nan nan 27 24 23 24 25
33 34 33 32 33 32 32 32 30 30 31 30 29 26 25 28 27 nan nan nan nan nan nan nan nan nan nan nan nan 33 nan nan nan nan 30 nan 32 31 30 27 25 28 27 27 27 26 25 26 24 24 23 21 25 28 29 27 29 28 32 33 30 33 34 29 30 34 36 36 36 36 38 nan 40 38 37 36 34 33 nan nan nan 27 26 26 27
32 33 36 34 33 33 34 33 31 31 32 31 29 29 27 28 nan nan nan nan nan nan nan nan nan nan nan nan nan nan nan nan nan nan nan nan nan nan 31 30 30 27 28 28 27 26 27 27 28 24 23 26 29 28 29 29 28 30 31 31 32 33 32 31 33 37 36 35 nan nan nan nan 44 48 45 40 37 36 35 32 30 32 31 29 28
32 34 37 36 35 36 37 36 34 34 33 33 32 32 30 29 nan nan nan nan nan nan nan nan nan nan nan nan nan nan nan nan nan nan nan nan nan nan nan nan nan 30 29 29 28 30 29 28 29 27 27 26 29 28 30 29 29 28 29 32 31 28 25 26 27 28 34 nan nan nan 44 nan nan 45 43 44 45 41 35 33 34 34 32 31 30
33 34 37 39 39 39 40 39 37 37 36 35 34 33 nan nan nan nan nan nan nan nan nan nan nan nan nan nan nan nan nan nan nan nan nan nan nan nan nan nan nan nan nan nan nan nan nan nan 32 30 30 29 26 29 30 29 29 27 27 29 29 27 25 23 21 21 26 31 37 41 44 46 47 47 46 45 44 47 45 43 39 35 34 35 33
34 36 38 40 41 41 42 41 41 40 38 37 36 nan nan nan nan nan nan nan nan nan nan nan nan nan nan nan nan nan nan nan nan nan nan nan nan nan nan nan nan nan nan nan nan nan nan nan nan nan 32 31 29 28 29 28 28 28 29 29 27 25 23 22 19 19 18 21 26 34 42 44 47 47 48 48 49 47 46 46 42 39 37 42 41
35 38 39 40 43 44 44 44 42 42 40 38 38 nan nan nan nan nan nan nan nan nan nan nan nan nan nan nan nan nan nan nan nan nan nan nan nan nan nan nan nan nan nan nan nan nan nan nan nan nan nan nan nan 31 32 29 28 30 30 29 26 24 23 nan nan 14 19 17 16 22 29 38 45 48 48 48 49 47 43 42 41 37 40 41 43
34 37 38 41 42 44 46 46 44 44 43 41 39 nan nan nan nan nan nan nan nan nan nan nan nan nan nan nan nan nan nan nan nan nan nan nan nan nan nan nan nan nan nan nan nan nan nan nan nan nan nan nan nan nan nan nan nan nan 29 30 29 26 25 21 17 21 20 19 18 18 18 25 33 41 46 49 49 47 42 40 39 34 33 39 42
32 36 38 42 44 44 46 47 46 44 43 41 39 37 34 nan nan nan nan nan nan nan nan nan nan nan nan nan nan nan nan nan nan nan nan nan nan nan nan nan nan nan nan nan nan nan nan nan nan nan nan nan nan nan nan nan nan nan nan nan nan nan 28 27 nan nan nan 24 nan nan nan nan 23 32 38 nan nan nan nan nan 38 nan nan nan 38
33 36 38 41 44 45 46 47 46 42 40 38 36 35 32 31 28 nan nan nan nan nan nan nan nan nan nan nan nan nan nan nan nan nan nan nan nan nan nan nan nan nan nan nan nan nan nan nan nan nan nan nan nan nan nan nan nan nan nan nan nan nan nan nan nan nan nan nan nan nan nan nan nan nan 28 32 nan nan nan nan nan nan nan nan nan
Wind_Direction
273 277 278 279 280 280 282 284 284 284 285 286 287 288 290 294 295 298 299 297 299 301 303 303 300 299 296 294 290 288 286 284 279 275 268 270 271 264 257 251 251 247 244 248 249 253 261 271 270 267 256 248 240 236 240 245 245 234 226 223 219 217 214 214 220 225 227 229 232 232 232 229 226 222 218 215 208 200 188 177 176 nan 212 218 230
278 277 278 278 278 280 282 284 284 284 285 287 287 288 290 293 295 297 298 299 302 304 304 302 301 300 298 295 292 290 285 282 277 275 270 269 267 260 253 250 247 246 245 247 247 249 256 264 268 264 256 249 244 238 236 240 239 234 228 225 222 218 216 213 216 224 226 229 232 232 229 225 225 223 217 213 nan 198 184 182 189 203 203 221 223
276 277 278 277 277 279 283 283 284 284 286 286 287 287 289 291 292 295 297 299 302 303 302 301 300 298 296 294 293 292 288 284 279 275 272 267 266 262 257 251 247 244 244 245 249 247 253 263 269 262 256 248 244 240 241 242 242 238 235 229 224 220 216 213 216 224 228 228 231 233 233 227 224 221 215 nan nan 207 198 196 nan 205 198 208 225
275 275 276 275 276 279 282 282 283 285 286 287 286 286 287 290 290 292 295 299 301 300 299 299 298 295 295 294 293 292 291 288 283 278 272 267 265 261 256 252 248 244 245 245 245 250 251 264 266 264 256 248 241 240 240 240 240 233 232 230 227 222 216 213 212 214 220 238 260 271 223 223 220 219 218 215 214 210 204 205 nan nan 212 211 219
273 273 276 279 280 279 282 283 284 286 287 287 288 289 287 287 289 291 294 298 299 299 300 298 298 297 297 295 293 292 289 285 281 278 273 265 259 257 255 254 252 249 247 249 249 249 253 256 262 263 256 247 241 240 240 243 245 240 235 231 227 222 216 214 212 207 200 212 187 147 222 218 213 213 221 222 223 218 218 210 205 209 209 207 210
270 276 280 283 284 284 283 285 286 288 288 287 289 289 289 287 288 291 291 294 297 298 300 300 299 297 297 295 294 290 284 281 278 275 268 263 255 255 255 255 254 251 250 249 250 246 248 254 258 257 253 245 239 238 239 241 244 240 237 233 227 225 219 211 196 188 177 184 141 156 216 218 211 213 223 229 228 227 222 215 208 208 215 221 217
276 278 281 284 286 287 286 287 288 287 287 287 287 287 287 287 287 290 292 296 299 301 301 302 301 299 297 294 291 287 285 281 276 270 262 259 252 251 256 257 259 256 253 251 251 253 247 249 254 257 254 247 239 234 232 234 240 239 240 232 226 226 220 206 193 176 174 163 164 185 211 212 211 209 214 221 223 220 216 212 206 205 210 209 207
273 276 281 283 287 289 290 291 291 290 287 285 285 286 287 287 289 290 293 297 300 301 301 301 300 299 295 293 290 286 283 279 273 267 257 253 247 246 252 259 260 260 257 254 251 252 252 250 254 256 255 245 237 232 231 234 237 238 236 232 227 223 219 204 179 178 158 168 180 207 211 214 219 211 211 214 217 216 213 212 207 207 211 226 225
275 275 280 285 286 292 293 293 291 291 287 285 285 285 287 289 290 292 293 296 299 299 298 298 298 298 297 293 289 285 282 275 268 259 251 250 250 246 249 255 257 257 251 242 237 238 246 247 250 251 247 245 239 231 228 229 234 237 236 228 222 219 212 197 178 170 169 174 203 205 209 216 219 216 214 216 217 212 200 213 223 217 212 209 210
273 277 281 284 289 290 292 293 292 290 288 286 284 285 288 289 291 291 293 296 297 297 297 298 297 297 295 292 289 285 278 270 261 255 251 249 250 250 255 254 257 258 253 250 246 245 249 242 247 254 253 247 242 234 229 230 232 235 237 228 220 216 209 183 172 166 171 202 203 203 205 184 226 217 212 204 203 195 208 212 212 210 209 nan nan
275 275 280 285 291 290 292 293 293 291 289 287 285 286 287 290 292 291 293 295 297 296 295 296 296 296 295 292 289 284 277 266 260 257 251 249 253 256 259 258 255 255 259 259 255 252 251 249 251 255 257 249 245 237 229 230 231 231 233 229 221 212 199 180 171 175 190 194 207 202 207 225 221 215 212 207 205 206 nan 211 219 219 218 nan nan
279 278 280 284 289 288 291 292 292 292 290 287 288 289 290 292 294 293 294 294 295 295 293 293 295 294 293 291 288 281 273 265 260 259 256 252 254 261 264 263 261 257 259 263 264 260 257 255 255 257 257 254 249 242 232 230 230 229 232 227 219 206 188 181 176 180 193 206 212 200 208 219 223 225 218 212 nan nan nan nan nan nan nan nan nan
278 282 284 288 290 285 285 286 289 291 291 291 290 291 293 294 293 294 295 295 295 294 294 294 294 292 290 288 283 276 267 262 258 256 256 255 257 261 265 269 266 264 262 262 266 265 263 259 259 261 259 255 251 247 238 232 231 230 233 230 217 200 185 175 180 174 201 209 205 176 227 218 220 231 224 217 nan nan nan nan nan nan nan nan nan
278 280 285 288 287 286 283 285 287 290 291 291 293 291 291 293 291 293 295 295 293 293 292 291 291 290 288 283 278 269 263 258 259 260 258 261 260 265 266 269 272 270 265 261 262 265 262 260 259 258 257 253 247 245 239 230 226 227 228 229 220 201 176 175 171 186 204 210 179 193 215 218 218 228 226 219 nan nan nan nan nan nan nan nan nan
280 282 285 285 288 288 284 283 283 290 290 287 290 293 292 290 291 292 295 294 292 291 289 289 288 287 286 280 273 270 266 261 258 258 263 265 267 267 269 271 275 276 271 264 257 258 261 259 259 257 254 249 241 237 235 228 222 225 229 227 213 197 185 184 182 204 200 203 201 177 222 219 228 229 220 222 nan nan nan nan nan nan nan nan nan
279 280 280 285 289 291 291 284 280 290 292 288 284 290 291 290 288 292 294 293 292 290 288 285 285 286 283 278 276 274 271 268 265 265 265 266 269 273 272 273 274 273 272 264 263 262 261 257 258 258 254 249 242 235 234 233 228 227 232 227 211 199 190 180 182 203 201 201 205 180 221 220 228 227 224 219 nan nan nan nan nan nan nan nan nan
278 281 283 288 293 293 294 297 292 287 287 280 288 284 285 287 291 293 292 290 292 289 287 283 282 280 278 278 276 274 272 271 271 272 276 272 274 276 275 274 273 273 272 269 265 263 260 256 258 257 254 249 243 236 233 231 229 232 235 228 213 206 190 182 182 202 203 204 201 193 216 221 222 225 219 216 nan nan nan nan nan nan nan nan nan
280 284 284 289 291 292 295 298 297 296 293 287 286 282 282 283 285 288 285 283 283 279 278 276 279 278 274 273 273 270 271 272 274 273 271 274 276 280 280 277 274 272 271 270 268 262 260 258 258 257 254 250 242 236 231 228 228 230 236 230 217 204 190 182 183 205 205 nan 198 204 214 225 225 217 216 214 218 nan nan nan nan nan nan nan nan
279 284 283 287 290 291 295 295 295 295 297 292 288 284 285 286 281 279 284 283 280 278 276 274 271 269 263 264 266 269 269 268 269 271 271 272 272 274 278 279 278 274 270 269 270 267 267 268 263 258 254 247 236 231 228 222 220 223 230 236 224 204 191 190 189 207 211 193 200 214 217 221 224 217 217 217 217 nan nan nan nan nan nan nan nan
279 280 283 282 289 292 291 291 294 294 295 293 289 287 284 288 283 280 287 288 292 281 280 280 272 261 259 262 265 268 266 266 261 273 270 270 275 275 275 277 279 273 268 268 269 270 270 270 266 259 257 252 240 231 230 224 218 220 220 230 233 215 203 201 200 204 209 208 192 216 225 219 217 214 216 219 218 nan nan nan nan nan nan nan nan
276 283 283 288 287 293 295 293 296 299 294 295 288 289 286 288 288 288 295 292 289 287 277 276 276 275 271 265 264 268 270 267 271 274 275 277 276 269 274 276 278 276 273 273 273 271 273 277 270 265 263 262 254 240 230 228 221 213 218 220 228 220 214 214 210 207 206 nan 204 216 224 220 204 217 215 221 222 221 nan nan nan nan nan nan nan
277 281 285 288 292 296 293 292 293 294 289 287 285 286 286 289 291 293 296 295 291 286 285 282 282 270 259 270 268 266 269 274 278 283 277 287 281 278 277 278 276 275 273 273 273 272 276 276 272 268 266 267 270 246 228 224 224 217 214 215 214 213 224 219 211 214 208 212 217 220 224 220 215 218 221 225 224 224 nan nan nan nan nan nan nan
282 284 285 288 290 291 295 295 298 291 288 281 281 280 285 284 290 295 293 295 294 288 286 284 276 276 280 274 268 266 268 270 274 287 291 293 287 285 281 278 278 273 272 269 270 272 270 274 276 273 268 267 262 nan 225 217 218 219 213 212 205 215 219 218 217 217 210 219 219 230 225 218 218 223 223 223 225 225 223 nan nan nan nan nan nan
283 285 286 286 287 288 286 287 292 292 286 287 287 289 288 295 294 298 294 294 293 289 285 283 265 259 264 258 254 261 271 270 282 298 289 291 286 285 277 267 265 271 271 267 270 274 272 272 277 280 273 nan nan nan nan nan 220 nan 214 213 208 219 213 222 217 221 213 226 227 234 226 220 210 221 221 222 227 227 227 nan nan nan nan nan nan
284 284 285 288 288 285 284 283 281 282 284 275 278 284 286 284 288 288 286 291 283 279 272 259 261 268 248 265 255 250 260 271 281 286 290 280 279 278 266 260 255 259 273 261 268 271 275 269 270 275 272 268 254 238 nan nan 208 219 217 214 214 214 210 212 216 218 222 229 231 236 230 219 212 217 224 225 223 nan 230 nan nan nan nan nan nan
279 285 287 288 284 286 284 279 280 278 273 281 277 273 277 277 277 272 278 285 289 279 263 256 265 270 273 263 277 272 269 267 265 260 261 266 266 251 266 254 233 252 254 254 265 269 274 270 271 275 271 265 257 243 234 220 nan 208 215 218 218 217 209 214 220 221 217 230 235 240 232 224 215 214 226 227 226 nan nan nan nan nan nan nan nan
284 285 287 282 287 286 285 283 278 271 274 274 270 276 274 275 276 281 288 287 283 269 269 264 269 280 271 267 267 270 268 271 262 276 285 292 285 273 279 281 270 249 255 249 260 266 266 272 269 274 273 272 271 267 246 232 213 nan 209 216 215 217 216 217 221 220 222 227 235 243 237 229 222 217 223 229 230 227 227 228 nan nan nan nan nan
292 290 289 287 290 289 283 283 277 275 273 268 268 265 267 264 270 273 271 277 282 291 277 275 268 259 266 257 252 260 272 263 273 269 271 269 270 264 247 267 271 279 267 261 263 264 262 264 267 265 271 273 275 276 267 242 224 201 207 211 216 212 214 219 220 217 223 226 235 240 241 233 228 220 215 226 230 229 227 228 nan nan nan nan nan
290 294 293 297 296 286 285 279 275 277 270 263 263 258 255 263 263 264 275 268 268 266 274 263 255 262 263 271 258 254 261 267 255 251 241 253 256 247 244 247 259 256 270 269 263 263 263 262 267 268 264 265 266 271 276 257 233 212 206 210 212 216 219 219 221 223 223 224 232 238 244 240 233 227 221 219 228 231 229 228 233 nan nan nan nan
295 295 296 290 288 288 286 280 280 276 271 271 266 263 257 254 258 261 259 263 261 255 252 260 261 258 256 250 256 246 248 250 257 252 253 251 253 258 252 252 262 262 269 268 264 264 260 259 262 265 267 262 258 261 263 263 242 223 212 210 214 212 219 220 221 223 225 227 228 239 247 243 237 237 228 223 220 229 232 231 234 237 nan nan nan
295 297 295 294 287 292 284 281 276 260 265 272 267 267 264 263 260 254 258 256 255 250 247 250 261 262 254 252 256 262 254 250 255 259 259 258 255 258 262 262 262 260 260 268 269 263 259 257 258 262 265 261 256 257 259 256 242 230 221 211 211 217 219 222 219 223 225 233 229 236 242 245 241 233 237 233 226 228 230 233 235 238 239 nan nan
295 297 295 290 293 289 286 280 270 264 253 263 269 263 263 258 262 260 249 251 246 243 245 248 251 247 259 254 248 251 256 255 258 259 258 262 262 261 262 261 261 252 245 260 263 263 259 255 261 259 259 258 255 246 251 245 243 231 225 219 212 212 218 223 223 222 222 228 229 235 238 239 243 236 229 232 235 231 231 233 236 235 241 238 nan
293 296 291 291 292 282 279 274 271 266 265 254 258 259 257 260 261 257 257 250 248 244 243 243 240 244 244 250 256 260 259 257 261 259 259 260 257 261 263 263 263 269 271 270 268 258 262 262 256 259 259 260 256 253 248 248 241 239 230 227 221 216 216 218 224 223 224 226 229 230 239 243 243 244 236 230 229 234 236 235 237 239 239 242 240
294 295 293 292 289 280 280 275 270 271 261 262 260 261 261 253 253 256 257 252 248 245 241 240 245 247 248 249 250 252 254 259 265 260 256 253 259 265 259 262 265 271 267 258 259 265 259 257 264 261 264 261 260 255 255 254 251 245 241 233 228 223 220 218 221 224 224 225 229 229 230 236 244 245 241 240 233 233 235 240 239 241 242 243 244
295 294 296 294 290 284 282 280 276 271 271 266 268 261 261 255 258 255 258 256 251 249 247 244 246 249 247 252 252 251 250 259 264 276 269 265 262 265 262 255 257 265 261 246 259 266 265 263 250 262 265 261 259 257 249 242 243 241 235 233 235 231 227 221 219 219 223 226 226 230 230 229 234 242 244 244 245 238 238 241 244 241 243 242 248
297 296 294 292 289 286 287 286 285 277 272 268 264 259 262 257 252 254 254 257 259 251 246 246 247 248 246 243 246 256 258 260 265 270 273 270 273 264 264 265 261 266 268 264 267 273 266 260 260 252 259 258 257 259 260 254 249 247 241 239 235 228 226 226 224 221 220 222 227 232 236 236 235 235 239 242 244 249 250 245 245 249 248 247 252
298 297 294 290 288 288 289 290 291 286 280 275 271 267 263 264 262 258 258 259 261 260 251 248 246 245 254 246 243 255 259 261 270 270 275 277 274 268 258 266 273 269 273 273 275 271 270 267 258 257 252 255 264 261 258 255 251 251 248 241 237 235 229 224 222 225 223 222 221 222 nan 233 238 235 239 236 243 249 259 257 252 253 254 250 255
297 297 293 291 288 288 290 290 290 289 285 281 277 275 271 266 266 264 253 254 252 253 252 251 248 243 253 264 267 253 253 264 257 268 269 270 269 266 268 263 267 274 274 279 274 273 268 266 264 266 265 260 270 269 263 261 257 252 250 248 244 240 233 228 223 219 224 225 224 nan nan 230 238 241 242 244 240 245 251 259 262 257 257 258 256
296 297 295 294 291 289 289 290 291 289 288 286 283 275 271 268 262 nan nan nan 257 250 245 247 248 248 244 250 253 261 258 255 262 262 268 268 267 272 268 271 274 272 275 274 276 279 271 263 262 265 255 256 256 256 257 260 260 258 254 254 252 249 240 230 226 224 224 224 224 nan nan nan nan 236 239 241 242 241 253 252 253 250 253 263 258
296 295 296 294 292 291 291 292 292 290 287 287 286 284 282 278 271 270 269 261 256 252 249 252 251 253 251 249 254 258 258 261 264 263 263 263 268 269 273 268 271 275 278 274 274 269 274 275 276 271 269 258 257 260 261 260 260 259 257 256 255 256 251 235 226 225 227 225 224 224 nan nan 226 230 236 240 240 244 247 255 254 252 249 267 272
297 296 295 295 293 294 294 295 293 291 289 289 287 284 281 278 272 269 269 nan 265 259 nan 248 253 253 253 255 nan nan 258 259 259 263 265 267 264 276 278 275 272 272 274 274 272 262 255 261 264 262 263 260 252 263 268 266 264 263 259 260 257 256 250 242 232 228 228 229 225 225 227 226 225 226 227 232 236 239 244 244 244 247 250 250 269
299 298 298 297 295 294 295 293 292 292 289 288 283 278 277 nan nan 274 nan nan nan nan nan nan nan nan nan nan nan nan nan 262 261 262 263 263 266 265 271 278 276 275 275 277 276 273 269 272 267 266 268 272 272 273 273 273 270 269 265 256 253 257 253 246 nan 237 233 233 228 225 226 228 228 228 229 232 232 235 nan nan 245 240 243 244 261
300 301 300 299 297 296 294 294 293 293 291 288 287 284 274 268 267 nan nan nan nan nan nan nan nan nan nan nan nan 262 nan nan nan nan 264 nan 264 266 266 269 269 272 275 276 278 277 271 274 280 279 272 269 269 273 276 275 268 270 266 260 255 252 254 255 249 244 244 240 235 229 227 nan 223 225 231 233 233 236 nan nan nan 247 241 242 242
300 303 300 303 300 299 297 296 295 295 293 293 290 284 278 273 nan nan nan nan nan nan nan nan nan nan nan nan nan nan nan nan nan nan nan nan nan nan 269 268 270 270 272 274 273 272 272 275 276 275 271 271 275 275 274 274 269 272 273 272 266 259 259 263 254 247 244 247 nan nan nan nan 230 229 226 227 232 233 236 239 240 243 246 243 245
303 304 303 303 299 302 300 299 297 296 296 295 292 288 286 281 nan nan nan nan nan nan nan nan nan nan nan nan nan nan nan nan nan nan nan nan nan nan nan nan nan 270 276 276 274 274 276 271 272 271 271 269 275 274 273 272 273 267 265 273 272 268 267 261 254 253 244 nan nan nan 239 nan nan 231 231 229 225 226 231 239 243 244 247 249 248
302 300 299 301 300 300 300 301 298 297 298 298 294 292 nan nan nan nan nan nan nan nan nan nan nan nan nan nan nan nan nan nan nan nan nan nan nan nan nan nan nan nan nan nan nan nan nan nan 273 271 273 274 269 277 273 265 265 269 266 262 263 264 263 257 253 256 250 243 238 237 239 238 234 231 231 230 229 231 228 224 230 240 251 247 248
298 294 295 297 298 297 298 300 299 298 299 300 298 nan nan nan nan nan nan nan nan nan nan nan nan nan nan nan nan nan nan nan nan nan nan nan nan nan nan nan nan nan nan nan nan nan nan nan nan nan 273 272 272 274 277 273 271 270 269 264 264 264 257 261 263 257 251 251 247 241 238 237 236 234 231 231 232 231 229 229 224 227 233 244 241
292 292 293 295 299 299 299 299 298 299 300 301 300 nan nan nan nan nan nan nan nan nan nan nan nan nan nan nan nan nan nan nan nan nan nan nan nan nan nan nan nan nan nan nan nan nan nan nan nan nan nan nan nan 268 267 266 268 266 265 267 269 266 263 nan nan 264 265 259 251 247 245 240 238 237 235 234 235 237 235 235 231 226 232 236 240
288 290 292 293 293 295 297 297 298 299 300 302 300 nan nan nan nan nan nan nan nan nan nan nan nan nan nan nan nan nan nan nan nan nan nan nan nan nan nan nan nan nan nan nan nan nan nan nan nan nan nan nan nan nan nan nan nan nan 267 267 268 267 267 269 272 270 270 271 271 267 255 253 247 242 238 238 237 238 239 241 234 228 239 246 244
286 288 290 290 292 292 294 297 298 299 301 303 300 300 298 nan nan nan nan nan nan nan nan nan nan nan nan nan nan nan nan nan nan nan nan nan nan nan nan nan nan nan nan nan nan nan nan nan nan nan nan nan nan nan nan nan nan nan nan nan nan nan 272 267 nan nan nan 274 nan nan nan nan 246 247 245 nan nan nan nan nan 237 nan nan nan 245
280 284 286 288 290 291 293 296 297 297 300 300 297 297 296 294 292 nan nan nan nan nan nan nan nan nan nan nan nan nan nan nan nan nan nan nan nan nan nan nan nan nan nan nan nan nan nan nan nan nan nan nan nan nan nan nan nan nan nan nan nan nan nan nan nan nan nan nan nan nan nan nan nan nan 244 248 nan nan nan nan nan nan nan nan nan